When you browse on this site, cookies collect data to enhance your experience and personalize the content and advertising you see.
Visit our Privacy Policy to learn more. By continuing to use the site, you agree to this use of cookies and data.
  • In United Kingdom
  • List of Countries
  • For 7 days
  • Water Temperature
  • Satellite Maps
  • Weather Map
  • Weather Widgets
  • user-avatar
    Login

    Hourly Weather Townsville

    Today, 23 July, Tuesday

    Time Temperature Precipitation Wind Pressure Humidity
    00:00 +18°C° 0 mm 4 mps 756 mmHg 91%
    01:00 +18°C° 0 mm 4 mps 756 mmHg 91%
    02:00 +18°C° 0 mm 4 mps 756 mmHg 91%
    03:00 +18°C° 0 mm 4 mps 756 mmHg 91%
    04:00 +18°C° 0 mm 3 mps 755 mmHg 91%
    05:00 +17°C° 0 mm 3 mps 756 mmHg 92%
    06:00 +17°C° 0 mm 3 mps 756 mmHg 92%
    07:00 +17°C° 0 mm 3 mps 756 mmHg 93%
    08:00 +19°C° 0 mm 3 mps 757 mmHg 84%
    09:00 +21°C° 0 mm 3 mps 757 mmHg 76%
    10:00 +22°C° 0 mm 3 mps 757 mmHg 67%
    11:00 +23°C° 0 mm 4 mps 757 mmHg 63%
    12:00 +25°C° 0 mm 4 mps 757 mmHg 59%
    13:00 +26°C° 0 mm 5 mps 756 mmHg 55%
    14:00 +26°C° 0 mm 5 mps 756 mmHg 58%
    15:00 +25°C° 0 mm 5 mps 756 mmHg 62%
    16:00 +23°C° 0 mm 5 mps 756 mmHg 65%
    17:00 +22°C° 0 mm 4 mps 756 mmHg 69%
    18:00 +21°C° 0 mm 4 mps 756 mmHg 74%
    19:00 +20°C° 0 mm 3 mps 757 mmHg 78%
    20:00 +19°C° 0 mm 3 mps 757 mmHg 80%
    21:00 +19°C° 0 mm 3 mps 757 mmHg 82%
    22:00 +19°C° 0 mm 3 mps 758 mmHg 84%
    23:00 +18°C° 0 mm 3 mps 758 mmHg 85%

    Tomorrow, 24 July, Wednesday

    Time Temperature Precipitation Wind Pressure Humidity
    00:00 +18°C° 0 mm 3 mps 758 mmHg 86%
    01:00 +17°C° 0 mm 3 mps 758 mmHg 88%
    02:00 +17°C° 0 mm 3 mps 758 mmHg 88%
    03:00 +16°C° 0 mm 3 mps 758 mmHg 89%
    04:00 +16°C° 0 mm 3 mps 757 mmHg 90%
    05:00 +16°C° 0 mm 3 mps 758 mmHg 90%
    06:00 +14°C° 0 mm 3 mps 758 mmHg 90%
    07:00 +14°C° 0 mm 3 mps 759 mmHg 90%
    08:00 +18°C° 0 mm 3 mps 759 mmHg 76%
    09:00 +20°C° 0 mm 3 mps 759 mmHg 61%
    10:00 +23°C° 0 mm 4 mps 759 mmHg 47%
    11:00 +25°C° 0 mm 4 mps 759 mmHg 44%
    12:00 +26°C° 0 mm 5 mps 758 mmHg 40%
    13:00 +27°C° 0 mm 6 mps 757 mmHg 37%
    14:00 +26°C° 0 mm 6 mps 757 mmHg 39%
    15:00 +26°C° 0 mm 6 mps 757 mmHg 42%
    16:00 +24°C° 0 mm 6 mps 756 mmHg 44%
    17:00 +22°C° 0 mm 5 mps 757 mmHg 54%
    18:00 +20°C° 0 mm 5 mps 757 mmHg 63%
    19:00 +17°C° 0 mm 5 mps 758 mmHg 72%
    20:00 +18°C° 0 mm 4 mps 758 mmHg 75%
    21:00 +17°C° 0 mm 4 mps 758 mmHg 77%
    22:00 +17°C° 0 mm 4 mps 759 mmHg 79%
    23:00 +15°C° 0 mm 4 mps 758 mmHg 79%

    Day after tomorrow, 25 July, Thursday

    Time Temperature Precipitation Wind Pressure Humidity
    00:00 +15°C° 0 mm 4 mps 758 mmHg 80%
    01:00 +14°C° 0 mm 4 mps 758 mmHg 80%
    02:00 +14°C° 0 mm 4 mps 758 mmHg 81%
    03:00 +13°C° 0 mm 3 mps 757 mmHg 82%
    04:00 +13°C° 0 mm 3 mps 757 mmHg 83%
    05:00 +13°C° 0 mm 3 mps 758 mmHg 84%
    06:00 +13°C° 0 mm 3 mps 758 mmHg 84%
    07:00 +13°C° 0 mm 3 mps 758 mmHg 85%
    08:00 +15°C° 0 mm 4 mps 759 mmHg 74%
    09:00 +19°C° 0 mm 4 mps 759 mmHg 63%
    10:00 +22°C° 0 mm 5 mps 759 mmHg 51%
    11:00 +23°C° 0 mm 5 mps 758 mmHg 48%
    12:00 +24°C° 0 mm 6 mps 758 mmHg 45%
    13:00 +26°C° 0 mm 6 mps 757 mmHg 42%
    14:00 +24°C° 0 mm 6 mps 757 mmHg 43%
    15:00 +24°C° 0 mm 6 mps 756 mmHg 44%
    16:00 +25°C° 0 mm 5 mps 756 mmHg 44%
    17:00 +22°C° 0 mm 5 mps 756 mmHg 53%
    18:00 +20°C° 0 mm 5 mps 757 mmHg 61%
    19:00 +17°C° 0 mm 5 mps 757 mmHg 70%
    20:00 +17°C° 0 mm 4 mps 758 mmHg 74%
    21:00 +17°C° 0 mm 4 mps 758 mmHg 78%
    22:00 +15°C° 0 mm 4 mps 758 mmHg 82%
    23:00 +15°C° 0 mm 4 mps 758 mmHg 83%

    26 July, Friday

    Time Temperature Precipitation Wind Pressure Humidity
    00:00 +14°C° 0 mm 4 mps 758 mmHg 84%
    01:00 +14°C° 0 mm 4 mps 758 mmHg 86%
    02:00 +14°C° 0 mm 3 mps 757 mmHg 86%
    03:00 +13°C° 0 mm 3 mps 757 mmHg 87%
    04:00 +13°C° 0 mm 3 mps 757 mmHg 88%
    05:00 +13°C° 0 mm 3 mps 757 mmHg 88%
    06:00 +13°C° 0 mm 3 mps 757 mmHg 89%
    07:00 +13°C° 0 mm 3 mps 757 mmHg 89%
    08:00 +17°C° 0 mm 4 mps 757 mmHg 80%
    09:00 +19°C° 0 mm 4 mps 758 mmHg 70%
    10:00 +22°C° 0 mm 4 mps 758 mmHg 60%
    11:00 +23°C° 0 mm 4 mps 757 mmHg 57%
    12:00 +25°C° 0 mm 4 mps 756 mmHg 54%
    13:00 +26°C° 0 mm 4 mps 756 mmHg 52%
    14:00 +25°C° 0 mm 5 mps 755 mmHg 55%
    15:00 +23°C° 0 mm 5 mps 755 mmHg 59%
    16:00 +23°C° 0 mm 5 mps 755 mmHg 63%
    17:00 +21°C° 0 mm 5 mps 755 mmHg 70%
    18:00 +20°C° 0 mm 4 mps 756 mmHg 78%
    19:00 +19°C° 0 mm 4 mps 756 mmHg 85%
    20:00 +18°C° 0 mm 3 mps 756 mmHg 86%
    21:00 +18°C° 0 mm 3 mps 757 mmHg 88%
    22:00 +17°C° 0 mm 3 mps 757 mmHg 90%
    23:00 +17°C° 0 mm 3 mps 757 mmHg 90%

    27 July, Saturday

    Time Temperature Precipitation Wind Pressure Humidity
    00:00 +17°C° 0 mm 3 mps 757 mmHg 91%
    01:00 +16°C° 0 mm 3 mps 757 mmHg 91%
    02:00 +16°C° 0 mm 3 mps 757 mmHg 92%
    03:00 +16°C° 0 mm 3 mps 757 mmHg 92%
    04:00 +16°C° 0 mm 3 mps 756 mmHg 93%
    05:00 +14°C° 0 mm 3 mps 757 mmHg 93%
    06:00 +14°C° 0 mm 3 mps 757 mmHg 93%
    07:00 +14°C° 0 mm 3 mps 757 mmHg 93%
    08:00 +17°C° 0 mm 3 mps 758 mmHg 82%
    09:00 +20°C° 0 mm 3 mps 758 mmHg 72%
    10:00 +22°C° 0 mm 3 mps 758 mmHg 61%
    11:00 +24°C° 0 mm 3 mps 757 mmHg 57%
    12:00 +25°C° 0 mm 4 mps 757 mmHg 54%
    13:00 +26°C° 0 mm 4 mps 756 mmHg 50%
    14:00 +25°C° 0 mm 4 mps 756 mmHg 53%
    15:00 +25°C° 0 mm 5 mps 755 mmHg 57%
    16:00 +23°C° 0 mm 5 mps 755 mmHg 60%
    17:00 +21°C° 0 mm 4 mps 755 mmHg 70%
    18:00 +20°C° 0 mm 3 mps 756 mmHg 79%
    19:00 +18°C° 0 mm 3 mps 756 mmHg 88%
    20:00 +18°C° 0 mm 2 mps 756 mmHg 89%
    21:00 +17°C° 0 mm 2 mps 757 mmHg 90%
    22:00 +17°C° 0 mm 2 mps 757 mmHg 91%
    23:00 +17°C° 0 mm 2 mps 757 mmHg 92%

    28 July, Sunday

    Time Temperature Precipitation Wind Pressure Humidity
    00:00 +16°C° 0 mm 2 mps 757 mmHg 92%
    01:00 +16°C° 0 mm 2 mps 757 mmHg 93%
    02:00 +16°C° 0 mm 2 mps 756 mmHg 93%
    03:00 +16°C° 0 mm 2 mps 756 mmHg 93%
    04:00 +16°C° 0 mm 2 mps 756 mmHg 94%
    05:00 +16°C° 0 mm 3 mps 757 mmHg 94%
    06:00 +16°C° 0 mm 3 mps 757 mmHg 94%
    07:00 +16°C° 0 mm 3 mps 757 mmHg 94%
    08:00 +18°C° 0 mm 3 mps 757 mmHg 82%
    09:00 +20°C° 0 mm 3 mps 757 mmHg 71%
    10:00 +24°C° 0 mm 3 mps 758 mmHg 60%
    11:00 +25°C° 0 mm 3 mps 757 mmHg 55%
    12:00 +26°C° 0 mm 4 mps 756 mmHg 51%
    13:00 +26°C° 0 mm 4 mps 756 mmHg 46%
    14:00 +26°C° 0 mm 4 mps 755 mmHg 50%
    15:00 +25°C° 0 mm 4 mps 755 mmHg 53%
    16:00 +23°C° 0 mm 4 mps 754 mmHg 57%
    17:00 +22°C° 0 mm 3 mps 755 mmHg 67%
    18:00 +20°C° 0 mm 3 mps 755 mmHg 78%
    19:00 +18°C° 0 mm 2 mps 756 mmHg 88%
    20:00 +18°C° 0 mm 2 mps 756 mmHg 90%
    21:00 +17°C° 0 mm 2 mps 756 mmHg 91%
    22:00 +17°C° 0 mm 2 mps 757 mmHg 93%
    23:00 +17°C° 0 mm 2 mps 756 mmHg 93%
    Show more